Home   Weather   Barrie   Past weeks

Flag for Canada Past Weather in Barrie, Ontario, Canada — Yesterday and Last 2 Weeks

Now
41 °F

Mostly cloudy.


Feels Like: 38 °F
Forecast: 40 / 61 °F
Wind: 5 mph from Southeast

Location: Borden

Current Time: Apr 30, 2017 at 10:43:25 pm

Latest Report: Apr 30, 2017 at 10:03 pm


Visibility: 9 mi

Pressure: 29.93 "Hg

Humidity: 100%

Dew Point: 41 °F

Location of BarrieLocation

Past Weather in Barrie — Graph

°F

Barrie Temperature Yesterday

Maximum temperature yesterday: 55 °F (at 12:00 am)
Minimum temperature yesterday: 39 °F (at 4:26 am)
Average temperature yesterday: 44 °F

High & Low Weather Summary for the Past Weeks

 TemperatureHumidityPressure
High81 °F (Apr 27, 3:00 pm)100% (Apr 16, 7:35 pm)30.46 "Hg (Apr 16, 7:35 pm)
Low19 °F (Apr 18, 6:00 am)26% (Apr 23, 2:00 pm)29.47 "Hg (Apr 27, 5:00 pm)
Average48 °F79%29.99 "Hg
* Reported Apr 15 9:00 pm — Apr 30 9:21 pm, Barrie, Weather by CustomWeather, © 2017

Note: Actual official high and low records may vary slightly from our data, if they occured in-between our weather recording intervals... More about our weather records

Advertising

Barrie Weather History for the Previous 24 Hours

Scroll right to see more
 ConditionsComfort  
Time TempWeatherWind HumidityBarometerVisibility
9:21 pm
Sun, Apr 30
41 °FLight rain. Overcast.10 mph93%29.93 "Hg9 mi
8:00 pm41 °FLight rain. More clouds than sun.9 mph93%29.99 "Hg9 mi
7:38 pm41 °FOvercast.12 mph93%29.97 "Hg9 mi
7:05 pm41 °FLight rain. Overcast.9 mph93%29.99 "Hg9 mi
7:01 pm41 °FOvercast.10 mph93%29.99 "Hg9 mi
6:34 pm41 °FLight rain. Overcast.14 mph93%29.99 "Hg9 mi
6:12 pm41 °FLight rain. More clouds than sun.13 mph93%30.01 "Hg9 mi
6:00 pm41 °FLight rain. Mostly cloudy.8 mph93%30.05 "Hg9 mi
5:22 pm39 °FRain. Overcast.13 mph100%30.03 "Hg3 mi
5:00 pm41 °FHeavy rain. Overcast.9 mph93%30.08 "Hg2 mi
4:20 pm45 °FLight rain. Overcast.12 mph76%30.04 "Hg9 mi
4:08 pm45 °FLight rain. Overcast.10 mph76%30.03 "Hg9 mi
3:00 pm45 °FOvercast.13 mph76%30.08 "Hg9 mi
2:28 pm43 °FMore clouds than sun.10 mph81%30.08 "Hg9 mi
2:00 pm41 °FOvercast.14 mph81%30.12 "Hg9 mi
1:13 pm39 °FMore clouds than sun.14 mph87%30.13 "Hg9 mi
1:03 pm39 °FMostly cloudy.13 mph81%30.15 "Hg9 mi
12:00 pm39 °FOvercast.10 mph87%30.19 "Hg9 mi
11:01 am37 °FOvercast.12 mph93%30.20 "Hg9 mi
10:30 am37 °FOvercast.6 mph93%30.23 "Hg9 mi
10:00 am37 °FRain. Mostly cloudy.9 mph93%30.26 "Hg3 mi
9:29 am37 °FLight rain. Mostly cloudy.8 mph93%30.23 "Hg9 mi
9:00 am37 °FLight rain. Overcast.12 mph93%30.26 "Hg9 mi
8:00 am37 °FLight rain. Overcast.9 mph93%30.26 "Hg9 mi
7:00 am39 °FLight rain. Overcast.10 mph87%30.27 "Hg9 mi
6:00 am39 °FLight rain. Overcast.No wind87%30.29 "Hg9 mi
5:00 am41 °FLight rain. Overcast.8 mph76%30.23 "Hg9 mi
4:00 am43 °FLight rain. Overcast.9 mph66%30.24 "Hg9 mi
3:00 am43 °FOvercast.3 mph66%30.25 "Hg9 mi
2:00 am43 °FPassing clouds.3 mph66%30.28 "Hg9 mi
1:00 am43 °FClear.3 mph71%30.30 "Hg9 mi
12:00 am43 °FClear.6 mph66%30.30 "Hg9 mi
11:00 pm
Sat, Apr 29
43 °FClear.5 mph61%30.30 "Hg9 mi
10:00 pm41 °FClear.No wind70%30.30 "Hg9 mi
Weather by CustomWeather, © 2017

See weather overviewHow to use our weather pages